Regional Weather Roundup
Issued by NWS Northern Indiana

Home | Current Version | Previous Version | Graphics & Text | Print | Product List | Glossary On
Versions: 1 2 3 4 5 6 7 8 9 10 11 12 13 14 15 16 17 18 19 20 21 22 23 24 25 26 27 28 29 30 31 32 33 34 35 36 37 38 39 40 41 42 43 44 45 46 47 48 49 50
000
ASUS43 KIWX 010600
RWRIWX

KIWX WEATHER ROUNDUP
NATIONAL WEATHER SERVICE NORTHERN INDIANA
200 AM EDT MON SEP 01 2014

NOTE: "FAIR" INDICATES FEW OR NO CLOUDS BELOW 12,000 FEET WITH NO
SIGNIFICANT WEATHER AND/OR OBSTRUCTIONS TO VISIBILITY.

* THESE STATIONS ARE NOT UNDER NWS QUALITY CONTROL. THEY ALSO MAY NOT
  REPORT WEATHER SUCH AS PRECIPITATION OR FOG.

INZ001>027-010700-
NORTHERN INDIANA

CITY           SKY/WX    TMP DP  RH WIND       PRES   REMARKS
VALPARAISO     FAIR      71  69  93 S7        29.92S
6HR MIN TEMP:  71; 6HR MAX TEMP:  80;

KNOX*          FAIR      71  68  90 S6        29.92S
6HR MIN TEMP:  41; 6HR MAX TEMP:  88;

SOUTH BEND     FAIR      73  69  87 S7        29.93S
6HR MIN TEMP:  72; 6HR MAX TEMP:  80;

GOSHEN         FAIR      73  69  87 S6        29.94S
6HR MIN TEMP:  71; 6HR MAX TEMP:  80;

MONTICELLO*    MOCLDY    73  71  94 S5        29.94R
6HR MIN TEMP:  73; 6HR MAX TEMP:  78;

ANGOLA*        PTCLDY    70  61  73 S3        29.96R
FORT WAYNE     MOCLDY    71  69  93 SW8       29.97S
6HR MIN TEMP:  71; 6HR MAX TEMP:  75;

PERU/GRISSOM   FAIR      72  72 100 S7        29.95F
6HR MIN TEMP:  70; 6HR MAX TEMP:  77;


$$
INZ028>050-010700-
CENTRAL INDIANA

CITY           SKY/WX    TMP DP  RH WIND       PRES   REMARKS
LAFAYETTE      MOCLDY    72  70  93 VRB6      29.94R
6HR MIN TEMP:  72; 6HR MAX TEMP:  79;

KOKOMO*        FAIR      70  66  88 S7        29.96F
6HR MIN TEMP:  70; 6HR MAX TEMP:  81;

MUNCIE*        FAIR      72  68  87 S7        29.98S
6HR MIN TEMP:  72; 6HR MAX TEMP:  78;

INDIANAPOLIS   FAIR      71  69  93 S6        29.96F
6HR MIN TEMP:  71; 6HR MAX TEMP:  78;


$$
MIZ043>046-050>051-056>058-064>065-071>073-077>080-010700-
SOUTHWEST LOWER MICHIGAN

CITY           SKY/WX    TMP DP  RH WIND       PRES   REMARKS
BATTLE CREEK   FAIR      69  66  90 S6        29.94R
6HR MIN TEMP:  68; 6HR MAX TEMP:  79; 6HR PCP:  0.14;

BENTON HARBOR  FAIR      71  68  90 S7        29.89F
6HR MIN TEMP:  66; 6HR MAX TEMP:  76;

COLDWATER*     FAIR      73  70  93 S5        29.95R
6HR MIN TEMP:  69; 6HR MAX TEMP:  76;

HILLSDALE*     FAIR      70  70 100 SW5       29.97R FOG
6HR MIN TEMP:  67; 6HR MAX TEMP:  78;

HOLLAND        FAIR      70  67  90 SE7       29.90S
6HR MIN TEMP:  68; 6HR MAX TEMP:  77;

GRAND RAPIDS   FAIR      68  68 100 S7        29.91S
6HR MIN TEMP:  67; 6HR MAX TEMP:  77;

KALAMAZOO      FAIR      70  67  90 S6        29.92S
6HR MIN TEMP:  68; 6HR MAX TEMP:  78;

STURGIS*         N/A     70  70 100 S8        29.94S FOG
THREE RIVERS*  FAIR      69  69  98 S3        29.93F FOG
6HR MIN TEMP:  68; 6HR MAX TEMP:  77;


$$
OHZ001>008-015>018-024>025-010700-
NORTHWEST OHIO

CITY           SKY/WX    TMP DP  RH WIND       PRES   REMARKS
DEFIANCE       FAIR      72  67  84 S7        29.96R
6HR MIN TEMP:  70; 6HR MAX TEMP:  80;

FINDLAY        FAIR      70  67  90 S6        29.97R
6HR MIN TEMP:  70; 6HR MAX TEMP:  77;

TOLEDO EXPRESS FAIR      71  69  93 S5        29.95R
6HR MIN TEMP:  71; 6HR MAX TEMP:  77;

TOLEDO METCALF FAIR      72  68  87 SW7       29.97R
6HR MIN TEMP:  71; 6HR MAX TEMP:  80;

LIMA           FAIR      72  68  87 S7        29.98R
6HR MIN TEMP:  71; 6HR MAX TEMP:  77;


$$
&&


USA.gov is the U.S. government's official web portal to all federal, state and local government web resources and services.